Radioactive Concentration measured by Seawater Radiation Monitor near Fukushima Daiichi Nuclear Power Station
Date,Time,Cs137(Bq/L),Cs134(Bq/L),Total β(Bq/L)
2016/12/03,00:00,1.0,0.079,ND
2016/12/03,00:10,1.1,0.085,ND
2016/12/03,00:20,1.1,0.090,ND
2016/12/03,00:30,0.97,0.14,ND
2016/12/03,00:40,0.99,0.14,ND
2016/12/03,00:50,0.99,0.14,ND
2016/12/03,01:00,0.99,0.13,ND
2016/12/03,01:10,1.0,0.12,ND
2016/12/03,01:20,1.1,0.093,ND
2016/12/03,01:30,1.1,0.081,ND
2016/12/03,01:40,1.1,0.081,ND
2016/12/03,01:50,0.93,0.12,ND
2016/12/03,02:00,0.92,0.13,ND
2016/12/03,02:10,0.90,0.13,ND
2016/12/03,02:20,0.91,0.11,ND
2016/12/03,02:30,1.0,0.069,ND
2016/12/03,02:40,1.0,0.071,ND
2016/12/03,02:50,0.98,0.071,ND
2016/12/03,03:00,0.93,0.073,ND
2016/12/03,03:10,0.90,0.080,ND
2016/12/03,03:20,0.89,0.073,ND
2016/12/03,03:30,0.77,0.11,ND
2016/12/03,03:40,0.76,0.10,ND
2016/12/03,03:50,0.88,0.055,ND
2016/12/03,04:00,0.87,0.057,ND
2016/12/03,04:10,0.87,0.045,ND
2016/12/03,04:20,0.85,0.042,ND
2016/12/03,04:30,0.84,0.029,ND
2016/12/03,04:40,0.81,0.041,ND
2016/12/03,04:50,0.78,0.056,ND
2016/12/03,05:00,0.77,0.055,ND
2016/12/03,05:10,0.77,0.064,ND
2016/12/03,05:20,0.78,0.076,ND
2016/12/03,05:30,0.80,0.081,ND
2016/12/03,05:40,0.83,0.074,ND
2016/12/03,05:50,0.86,0.062,ND
2016/12/03,06:00,0.90,0.054,ND
2016/12/03,06:10,0.78,0.096,ND
2016/12/03,06:20,0.80,0.093,ND
2016/12/03,06:30,0.79,0.091,ND
2016/12/03,06:40,0.77,0.098,ND
2016/12/03,06:50,0.79,0.10,ND
2016/12/03,07:00,0.80,0.10,ND
2016/12/03,07:10,0.93,0.060,ND
2016/12/03,07:20,0.93,0.072,ND
2016/12/03,07:30,0.97,0.072,ND
2016/12/03,07:40,0.99,0.086,ND
2016/12/03,07:50,1.0,0.088,ND
2016/12/03,08:00,1.0,0.091,ND
2016/12/03,08:10,0.91,0.14,ND
2016/12/03,08:20,1.0,0.089,ND
2016/12/03,08:30,1.0,0.091,ND
2016/12/03,08:40,1.1,0.078,ND
2016/12/03,08:50,1.1,0.070,ND
2016/12/03,09:00,1.1,0.070,ND
2016/12/03,09:10,1.1,0.071,ND
2016/12/03,09:20,1.1,0.076,ND
2016/12/03,09:30,0.98,0.13,ND
2016/12/03,09:40,0.99,0.12,ND
2016/12/03,09:50,1.0,0.12,ND
2016/12/03,10:00,1.0,0.12,ND
2016/12/03,10:10,1.1,0.064,ND
2016/12/03,10:20,0.99,0.11,ND
2016/12/03,10:30,0.99,0.11,ND
2016/12/03,10:40,0.97,0.12,ND
2016/12/03,10:50,0.94,0.13,ND
2016/12/03,11:00,0.93,0.13,ND
2016/12/03,11:10,0.91,0.13,ND
2016/12/03,11:20,0.92,0.12,ND
2016/12/03,11:30,0.91,0.12,ND
2016/12/03,11:40,0.91,0.11,ND
2016/12/03,11:50,1.0,0.068,ND
2016/12/03,12:00,1.0,0.053,ND
2016/12/03,12:10,0.90,0.095,ND
2016/12/03,12:20,0.91,0.090,ND
2016/12/03,12:30,0.90,0.11,ND
2016/12/03,12:40,0.91,0.10,ND
2016/12/03,12:50,0.89,0.11,ND
2016/12/03,13:00,0.88,0.12,ND
2016/12/03,13:10,0.85,0.12,ND
2016/12/03,13:20,0.93,0.085,ND
2016/12/03,13:30,0.91,0.073,ND
2016/12/03,13:40,0.74,0.12,ND
2016/12/03,13:50,0.72,0.12,ND
2016/12/03,14:00,0.68,0.12,ND
2016/12/03,14:10,0.78,0.075,ND
2016/12/03,14:20,0.77,0.068,ND
2016/12/03,14:30,0.74,0.070,ND
2016/12/03,14:40,0.76,0.062,ND
2016/12/03,14:50,0.75,0.056,ND
2016/12/03,15:00,0.75,0.045,ND
2016/12/03,15:10,0.76,0.037,ND
2016/12/03,15:20,0.64,0.072,ND
2016/12/03,15:30,0.63,0.072,ND
2016/12/03,15:40,0.61,0.071,ND
2016/12/03,15:50,0.61,0.067,ND
2016/12/03,16:00,0.62,0.068,ND
2016/12/03,16:10,0.60,0.082,ND
2016/12/03,16:20,0.71,0.049,ND
2016/12/03,16:30,0.74,0.033,ND
2016/12/03,16:40,0.74,0.045,ND
2016/12/03,16:50,0.76,0.040,ND
2016/12/03,17:00,0.77,0.046,ND
2016/12/03,17:10,0.66,0.083,ND
2016/12/03,17:20,0.74,0.054,ND
2016/12/03,17:30,0.73,0.054,ND
2016/12/03,17:40,0.75,0.043,ND
2016/12/03,17:50,0.61,0.092,ND
2016/12/03,18:00,0.61,0.084,ND
2016/12/03,18:10,0.62,0.077,ND
2016/12/03,18:20,0.61,0.077,ND
2016/12/03,18:30,0.59,0.089,ND
2016/12/03,18:40,0.58,0.092,ND
2016/12/03,18:50,0.57,0.086,ND
2016/12/03,19:00,0.56,0.093,ND
2016/12/03,19:10,0.55,0.10,ND
2016/12/03,19:20,0.58,0.096,ND
2016/12/03,19:30,0.58,0.096,ND
2016/12/03,19:40,0.59,0.092,ND
2016/12/03,19:50,0.71,0.061,ND
2016/12/03,20:00,0.71,0.050,ND
2016/12/03,20:10,0.62,0.076,ND
2016/12/03,20:20,0.61,0.080,ND
2016/12/03,20:30,0.64,0.078,ND
2016/12/03,20:40,0.63,0.076,ND
2016/12/03,20:50,0.64,0.081,ND
2016/12/03,21:00,0.65,0.072,ND
2016/12/03,21:10,0.64,0.074,ND
2016/12/03,21:20,0.65,0.074,ND
2016/12/03,21:30,0.64,0.080,ND
2016/12/03,21:40,0.66,0.079,ND
2016/12/03,21:50,0.66,0.074,ND
2016/12/03,22:00,0.69,0.076,ND
2016/12/03,22:10,0.71,0.081,ND
2016/12/03,22:20,0.74,0.074,ND
2016/12/03,22:30,0.73,0.073,ND
2016/12/03,22:40,0.71,0.074,ND
2016/12/03,22:50,0.73,0.069,ND
2016/12/03,23:00,0.72,0.075,ND
2016/12/03,23:10,0.69,0.080,ND
2016/12/03,23:20,0.65,0.089,ND
2016/12/03,23:30,0.65,0.098,ND
2016/12/03,23:40,0.67,0.094,ND
2016/12/03,23:50,0.65,0.098,ND
